Previsão horária em Plievo

Hoje, 6 Março, Sábado

Tempo Temperatura Precipitação Vento Pressão Humidade
00:00 +4°C° 0 mm 1 m/s 721 mmHg 60%
01:00 +4°C° 0 mm 1 m/s 721 mmHg 59%
02:00 +4°C° 0 mm 1 m/s 721 mmHg 58%
03:00 +4°C° 0 mm 1 m/s 721 mmHg 58%
04:00 +4°C° 0 mm 1 m/s 721 mmHg 57%
05:00 +4°C° 0 mm 1 m/s 721 mmHg 56%
06:00 +2°C° 0 mm 2 m/s 721 mmHg 55%
07:00 +6°C° 0 mm 1 m/s 721 mmHg 50%
08:00 +8°C° 0 mm 1 m/s 721 mmHg 45%
09:00 +10°C° 0 mm 1 m/s 721 mmHg 40%
10:00 +11°C° 0 mm 1 m/s 720 mmHg 36%
11:00 +13°C° 0 mm 1 m/s 720 mmHg 31%
12:00 +15°C° 0 mm 1 m/s 720 mmHg 26%
13:00 +15°C° 0 mm 2 m/s 719 mmHg 26%
14:00 +16°C° 0 mm 2 m/s 719 mmHg 25%
15:00 +16°C° 0 mm 3 m/s 718 mmHg 24%
16:00 +14°C° 0 mm 2 m/s 718 mmHg 29%
17:00 +13°C° 0 mm 2 m/s 718 mmHg 33%
18:00 +10°C° 0 mm 2 m/s 718 mmHg 38%
19:00 +9°C° 0 mm 2 m/s 718 mmHg 40%
20:00 +9°C° 0 mm 2 m/s 718 mmHg 43%
21:00 +8°C° 0 mm 2 m/s 718 mmHg 45%
22:00 +7°C° 0 mm 2 m/s 717 mmHg 46%
23:00 +7°C° 0 mm 2 m/s 717 mmHg 47%

Amanhã, 7 Março, Domingo

Tempo Temperatura Precipitação Vento Pressão Humidade
00:00 +7°C° 0 mm 3 m/s 717 mmHg 47%
01:00 +5°C° 0 mm 3 m/s 717 mmHg 49%
02:00 +5°C° 0 mm 3 m/s 718 mmHg 50%
03:00 +4°C° 0 mm 3 m/s 718 mmHg 52%
04:00 +3°C° 0.2 mm 4 m/s 719 mmHg 64%
05:00 0°C° 0.2 mm 5 m/s 720 mmHg 75%
06:00 -2°C° 0.2 mm 6 m/s 721 mmHg 87%
07:00 -3°C° 0.4 mm 6 m/s 721 mmHg 85%
08:00 -2°C° 0.4 mm 5 m/s 722 mmHg 83%
09:00 -2°C° 0.4 mm 4 m/s 722 mmHg 81%
10:00 -2°C° 0.2 mm 4 m/s 722 mmHg 71%
11:00 -1°C° 0.2 mm 4 m/s 722 mmHg 61%
12:00 -1°C° 0.2 mm 4 m/s 722 mmHg 50%
13:00 0°C° 0 mm 3 m/s 722 mmHg 47%
14:00 +1°C° 0 mm 3 m/s 722 mmHg 44%
15:00 +2°C° 0 mm 2 m/s 722 mmHg 41%
16:00 +2°C° 0 mm 2 m/s 722 mmHg 44%
17:00 +1°C° 0 mm 2 m/s 722 mmHg 47%
18:00 +2°C° 0 mm 1 m/s 722 mmHg 50%
19:00 +1°C° 0 mm 1 m/s 722 mmHg 53%
20:00 0°C° 0 mm 1 m/s 723 mmHg 56%
21:00 0°C° 0 mm 1 m/s 723 mmHg 59%
22:00 0°C° 0 mm 1 m/s 723 mmHg 59%
23:00 -1°C° 0 mm 1 m/s 722 mmHg 59%

Depois de amanhã, 8 Março, Segunda-feira

Tempo Temperatura Precipitação Vento Pressão Humidade
00:00 -1°C° 0 mm 1 m/s 722 mmHg 59%
01:00 -1°C° 0 mm 1 m/s 722 mmHg 59%
02:00 -1°C° 0 mm 1 m/s 722 mmHg 60%
03:00 -2°C° 0 mm 0 m/s 722 mmHg 60%
04:00 -2°C° 0 mm 0 m/s 722 mmHg 61%
05:00 -2°C° 0 mm 0 m/s 722 mmHg 61%
06:00 -3°C° 0 mm 0 m/s 722 mmHg 62%
07:00 -2°C° 0 mm 0 m/s 721 mmHg 58%
08:00 0°C° 0 mm 1 m/s 721 mmHg 54%
09:00 +1°C° 0 mm 1 m/s 721 mmHg 50%
10:00 +1°C° 0 mm 2 m/s 721 mmHg 48%
11:00 +2°C° 0 mm 2 m/s 720 mmHg 45%
12:00 +2°C° 0 mm 3 m/s 719 mmHg 43%
13:00 +2°C° 0 mm 3 m/s 719 mmHg 44%
14:00 +3°C° 0 mm 3 m/s 719 mmHg 44%
15:00 +3°C° 0 mm 3 m/s 718 mmHg 45%
16:00 +3°C° 0 mm 2 m/s 718 mmHg 50%
17:00 +3°C° 0 mm 2 m/s 718 mmHg 54%
18:00 +2°C° 0 mm 2 m/s 718 mmHg 59%
19:00 +3°C° 0 mm 1 m/s 718 mmHg 63%
20:00 +2°C° 0 mm 1 m/s 719 mmHg 68%
21:00 +2°C° 0 mm 1 m/s 719 mmHg 72%
22:00 +2°C° 0 mm 1 m/s 719 mmHg 74%
23:00 +1°C° 0 mm 1 m/s 719 mmHg 77%

9 Março, Terça-feira

Tempo Temperatura Precipitação Vento Pressão Humidade
00:00 0°C° 0 mm 0 m/s 719 mmHg 79%
01:00 0°C° 0 mm 0 m/s 719 mmHg 79%
02:00 0°C° 0 mm 0 m/s 719 mmHg 79%
03:00 0°C° 0 mm 0 m/s 719 mmHg 79%
04:00 -1°C° 0 mm 0 m/s 719 mmHg 79%
05:00 -1°C° 0 mm 0 m/s 719 mmHg 79%
06:00 -1°C° 0 mm 0 m/s 719 mmHg 79%
07:00 0°C° 0 mm 0 m/s 719 mmHg 74%
08:00 +1°C° 0 mm 0 m/s 719 mmHg 69%
09:00 +3°C° 0 mm 1 m/s 719 mmHg 63%
10:00 +4°C° 0 mm 1 m/s 719 mmHg 59%
11:00 +5°C° 0 mm 1 m/s 719 mmHg 55%
12:00 +6°C° 0 mm 1 m/s 719 mmHg 51%
13:00 +6°C° 0 mm 1 m/s 718 mmHg 50%
14:00 +7°C° 0 mm 1 m/s 718 mmHg 48%
15:00 +7°C° 0 mm 1 m/s 718 mmHg 46%
16:00 +6°C° 0 mm 1 m/s 719 mmHg 49%
17:00 +6°C° 0 mm 1 m/s 719 mmHg 52%
18:00 +5°C° 0 mm 1 m/s 719 mmHg 55%
19:00 +5°C° 0 mm 1 m/s 720 mmHg 59%
20:00 +4°C° 0 mm 1 m/s 721 mmHg 63%
21:00 +4°C° 0 mm 1 m/s 721 mmHg 67%
22:00 +2°C° 0.7 mm 2 m/s 722 mmHg 76%
23:00 +1°C° 0.7 mm 2 m/s 722 mmHg 86%

10 Março, Quarta-feira

Tempo Temperatura Precipitação Vento Pressão Humidade
00:00 -1°C° 0.7 mm 2 m/s 722 mmHg 96%
01:00 -1°C° 0.7 mm 2 m/s 722 mmHg 92%
02:00 -2°C° 0.7 mm 3 m/s 723 mmHg 88%
03:00 -2°C° 0.7 mm 3 m/s 723 mmHg 84%
04:00 -3°C° 0.2 mm 2 m/s 723 mmHg 86%
05:00 -1°C° 0.2 mm 1 m/s 723 mmHg 88%
06:00 -2°C° 0.2 mm 0 m/s 723 mmHg 89%
07:00 -2°C° 0 mm 0 m/s 723 mmHg 84%
08:00 0°C° 0 mm 1 m/s 723 mmHg 78%
09:00 0°C° 0 mm 1 m/s 723 mmHg 72%
10:00 +1°C° 0 mm 1 m/s 723 mmHg 68%
11:00 +2°C° 0 mm 1 m/s 722 mmHg 65%
12:00 +2°C° 0 mm 2 m/s 722 mmHg 61%
13:00 +2°C° 0 mm 2 m/s 721 mmHg 60%
14:00 +2°C° 0 mm 2 m/s 721 mmHg 59%
15:00 +2°C° 0 mm 3 m/s 721 mmHg 58%
16:00 +1°C° 0 mm 3 m/s 721 mmHg 60%
17:00 +1°C° 0 mm 3 m/s 720 mmHg 63%
18:00 0°C° 0 mm 3 m/s 720 mmHg 65%
19:00 0°C° 0 mm 3 m/s 720 mmHg 67%
20:00 -1°C° 0 mm 2 m/s 720 mmHg 69%
21:00 -1°C° 0 mm 2 m/s 720 mmHg 71%
22:00 -2°C° 0 mm 2 m/s 720 mmHg 74%
23:00 -2°C° 0 mm 2 m/s 719 mmHg 76%

11 Março, Quinta-feira

Tempo Temperatura Precipitação Vento Pressão Humidade
00:00 -2°C° 0 mm 2 m/s 719 mmHg 79%
01:00 -2°C° 0.1 mm 2 m/s 719 mmHg 83%
02:00 -3°C° 0.1 mm 2 m/s 718 mmHg 88%
03:00 -1°C° 0.1 mm 1 m/s 718 mmHg 92%
04:00 -1°C° 0.3 mm 1 m/s 718 mmHg 93%
05:00 -1°C° 0.3 mm 1 m/s 718 mmHg 94%
06:00 -1°C° 0.3 mm 1 m/s 719 mmHg 95%
07:00 0°C° 0.2 mm 1 m/s 719 mmHg 93%
08:00 -2°C° 0.2 mm 2 m/s 719 mmHg 91%
09:00 -2°C° 0.2 mm 2 m/s 719 mmHg 89%
10:00 -1°C° 0.1 mm 2 m/s 719 mmHg 88%
11:00 -1°C° 0.1 mm 3 m/s 719 mmHg 87%
12:00 -1°C° 0.1 mm 3 m/s 718 mmHg 86%
13:00 -1°C° 0.2 mm 3 m/s 718 mmHg 87%
14:00 -1°C° 0.2 mm 3 m/s 718 mmHg 89%
15:00 -1°C° 0.2 mm 3 m/s 718 mmHg 90%
16:00 -1°C° 0.2 mm 3 m/s 718 mmHg 91%
17:00 -1°C° 0.2 mm 3 m/s 718 mmHg 92%
18:00 -2°C° 0.2 mm 3 m/s 719 mmHg 93%
19:00 -2°C° 0.1 mm 3 m/s 719 mmHg 93%
20:00 -2°C° 0.1 mm 3 m/s 720 mmHg 94%
21:00 -2°C° 0.1 mm 2 m/s 720 mmHg 94%
22:00 -2°C° 0.1 mm 2 m/s 720 mmHg 94%
23:00 -1°C° 0.1 mm 1 m/s 721 mmHg 94%
Mostrar mais

Necessitamos do seu Consentimento

A Meteoprog e os seus Fornecedores de Serviços podem armazenar e aceder a dados pessoais como cookies, identificadores do dispositivo ou outras tecnologias semelhantes existentes no seu dispositivo e processar estes dados para personalizar conteúdos e anúncios, assim como funcionalidades nas redes sociais e análise de tráfego.

  • Armazenar e/ou aceder a informações no seu dispositivo

    Os cookies, identificadores do dispositivo ou outras informações podem ser armazenados ou acedidos no seu dispositivo, para os fins acima indicados.

  • Anúncios e conteúdos personalizados, medição de anúncios e conteúdos, dados sobre o público-alvo e desenvolvimento de produtos

    Os anúncios e os conteúdos podem ser personalizados com base num perfil. Podem ser adicionados dados adicionais para uma maior personalização dos anúncios e dos conteúdos. A eficácia dos anúncios e dos conteúdos pode ser medida. Podem ser obtidas informações sobre o público que visualizou os anúncios e os conteúdos. Estes dados podem ser usados para desenvolver ou melhorar sistemas, softwares ou a experiência do utilizador.

Ao clicar em "Eu concordo”, permitirá o uso de cookies, identificadores do dispositivo e web beacons mencionados ou outras tecnologias semelhantes. As configurações do navegador do seu dispositivo podem ser alteradas.

Para certos fins, podem ser invocados interesses legítimos ao invés de consentimento. Pode ler mais informação sobre este assunto na nossa Política de Privacidade e Cookies.